Location: De Greiden
(52.9496°N, 5.9137°E)
Time: 23:32:25
(UTC+00:00)

Cosmos 2082 Rocket - Pass Details

Date: 24 January 2021
Orbit: 832 x 855 km, 71.0° (Epoch: 01 March)

Event Time Altitude Azimuth Distance (km) Brightness Sun altitude
Rises 20:17:33 0° 323° (NW) 3,437 6.1 -37.2°
Reaches altitude 10° 20:20:19 10° 312° (NW) 2,496 5.3 -37.6°
Enters shadow 20:24:33 27° 265° (W) 1,576 4.0 -38.2°
